Crescent City, CA

2:29 PM PDT on August 20, 2017 (GMT -0700)
McNamara

Weather History for KCEC - July, 2013

Change the Weather History Date:

Friday, July 5, 2013

  Actual Average Record
Temperature  
Mean Temperature 55 °F 56 °F  
Max Temperature 60 °F 61 °F 72 °F (1958)
Min Temperature 49 °F 51 °F 42 °F (1996)
Degree Days  
Heating Degree Days 11 9  
Month to date heating degree days 45  
Since 1 June heating degree days 354  
Since 1 July heating degree days 45  
Cooling Degree Days 0 0  
Month to date cooling degree days 0  
Year to date cooling degree days 0  
Since 1 June cooling degree days 0  
Growing Degree Days 4 (Base 50)    
Moisture  
Dew Point 50 °F    
Average Humidity 86    
Maximum Humidity 100    
Minimum Humidity 72    
Precipitation  
Precipitation 0.00 in 0.03 in 1.06 in (1990)
Month to date precipitation 0.00 0.14  
Year to date precipitation 19.93 37.07  
Since 1 July precipitation 0.00  
Snow  
Snow 0.00 in - - ()
Month to date snowfall 0.0  
Since 1 June snowfall 0.0  
Since 1 July snowfall 0.0  
Snow Depth -    
Sea Level Pressure  
Sea Level Pressure 29.86 in    
Wind  
Wind Speed 19 mph (NNW)    
Max Wind Speed 33 mph    
Max Gust Speed 47 mph    
Visibility 5 miles    
Events      
T = Trace of Precipitation, MM = Missing Value Source: NWS Daily Summary

Daily Weather History Graph

Daily Weather History Graph

Search for Another Location

Airport or City:

Trip Planner

Search our weather history database for the weather conditions in past years. The results will help you decide how hot, cold, wet, or windy it might be!

Date:

Astronomy

Jul. 05, 2013 Rise Set
Actual Time 5:48 AM PDT 8:54 PM PDT
Civil Twilight 5:14 AM PDT 9:28 PM PDT
Nautical Twilight 4:31 AM PDT 10:11 PM PDT
Astronomical Twilight 3:39 AM PDT 11:02 PM PDT
Moon 3:52 AM PDT (7/5) 6:53 PM PDT (7/5)
Length of Visible Light 16h 13m
Length of Day
15h 06m
Waning Crescent, 6% of the Moon is Illuminated
Jul 5
Waning Crescent
Jul 8
New
Jul 15
First Quarter
Jul 22
Full
Jul 29
Last Quarter

Hourly Weather History & Observations

Time (PDT) Temp. Dew Point Humidity Pressure Visibility Wind Dir Wind Speed Gust Speed Precip Events Conditions
12:56 AM 51.1 °F 50.0 °F 96% 29.93 in 3.0 mi Calm Calm - N/A   Overcast
1:06 AM 51.8 °F 50.0 °F 94% 29.92 in 2.5 mi Calm Calm - N/A   Overcast
1:24 AM 50.0 °F 48.2 °F 94% 29.92 in 1.2 mi NNW 3.5 mph - N/A   Overcast
1:48 AM 50.0 °F 48.2 °F 94% 29.91 in 2.0 mi Calm Calm - N/A   Overcast
1:56 AM 48.9 °F 48.0 °F 97% 29.91 in 2.0 mi North 4.6 mph - N/A   Overcast
2:18 AM 48.2 °F 48.2 °F 100% 29.91 in 1.2 mi WNW 3.5 mph - N/A   Overcast
2:24 AM 50.0 °F 48.2 °F 94% 29.91 in 0.8 mi Calm Calm - N/A   Mist
2:40 AM 50.0 °F 48.2 °F 94% 29.90 in 1.2 mi Calm Calm - N/A   Overcast
2:56 AM 50.0 °F 48.9 °F 96% 29.91 in 1.5 mi Calm Calm - N/A   Overcast
3:07 AM 50.0 °F 48.2 °F 94% 29.90 in 2.0 mi Calm Calm - N/A   Overcast
3:49 AM 51.8 °F 50.0 °F 94% 29.89 in 4.0 mi NNW 10.4 mph - N/A   Mostly Cloudy
3:56 AM 52.0 °F 50.0 °F 93% 29.89 in 5.0 mi North 10.4 mph - N/A   Mostly Cloudy
4:04 AM 53.6 °F 51.8 °F 94% 29.89 in 5.0 mi North 15.0 mph 27.6 mph N/A   Scattered Clouds
4:56 AM 52.0 °F 50.0 °F 93% 29.88 in 8.0 mi North 18.4 mph 25.3 mph N/A   Clear
5:56 AM 52.0 °F 50.0 °F 93% 29.88 in 6.0 mi North 15.0 mph 23.0 mph N/A   Clear
6:56 AM 53.1 °F 50.0 °F 89% 29.88 in 7.0 mi NNW 20.7 mph 29.9 mph N/A   Clear
7:56 AM 54.0 °F 50.0 °F 86% 29.88 in 7.0 mi NNW 19.6 mph 31.1 mph N/A   Clear
8:56 AM 55.9 °F 50.0 °F 80% 29.88 in 7.0 mi NNW 21.9 mph 32.2 mph N/A   Clear
9:56 AM 57.0 °F 50.0 °F 77% 29.87 in 8.0 mi NNW 25.3 mph 34.5 mph N/A   Clear
10:56 AM 57.9 °F 50.0 °F 75% 29.85 in 7.0 mi NNW 26.5 mph 39.1 mph N/A   Clear
11:56 AM 59.0 °F 50.0 °F 72% 29.84 in 7.0 mi NW 28.8 mph 38.0 mph N/A   Clear
12:56 PM 60.1 °F 51.1 °F 72% 29.83 in 7.0 mi NNW 28.8 mph 43.7 mph N/A   Clear
1:56 PM 59.0 °F 51.1 °F 75% 29.83 in 6.0 mi NNW 32.2 mph 42.6 mph N/A   Haze
2:56 PM 59.0 °F 51.1 °F 75% 29.81 in 6.0 mi NNW 27.6 mph 43.7 mph N/A   Haze
3:56 PM 59.0 °F 51.1 °F 75% 29.80 in 6.0 mi NNW 29.9 mph 42.6 mph N/A   Haze
4:56 PM 57.9 °F 50.0 °F 75% 29.78 in 6.0 mi NNW 28.8 mph 42.6 mph N/A   Haze
5:56 PM 57.0 °F 50.0 °F 77% 29.77 in 5.0 mi NNW 28.8 mph 39.1 mph N/A   Haze
6:56 PM 55.9 °F 51.1 °F 84% 29.77 in 5.0 mi NNW 26.5 mph 40.3 mph N/A   Haze
7:56 PM 55.0 °F 50.0 °F 83% 29.78 in 5.0 mi NNW 20.7 mph 29.9 mph N/A   Haze
8:56 PM 53.1 °F 48.9 °F 86% 29.79 in 5.0 mi North 12.7 mph 31.1 mph N/A   Clear
9:56 PM 53.1 °F 48.9 °F 86% 29.81 in 8.0 mi North 17.3 mph 28.8 mph N/A   Clear
10:56 PM 53.1 °F 48.9 °F 86% 29.83 in 8.0 mi NNW 19.6 mph 32.2 mph N/A   Clear
11:56 PM 51.1 °F 48.0 °F 89% 29.82 in 6.0 mi Calm Calm - N/A   Clear